星链-1738 (STARLINK-1738 )

导读 | 豆包AI

STARLINK-1738是美国太空探索技术公司 SpaceX 星链(Starlink)卫星互联网项目中的一颗卫星,于2020年9月3日发射入轨,属于星链低轨卫星星座组网批次,旨在为全球提供高速低延迟宽带互联网服务,属于星链第一代部署卫星,运行在近地轨道,支撑星座的全球覆盖能力构建。

基本信息
目录编号:
46336
目录名称:
STARLINK-1738
国际标识:
2020-062M
轨道中心:
EARTH
卫星名称:
星链-1738
卫星全名:
星链-1738 (STARLINK-1738 )
卫星状态:
已陨落 最后检测时间 2026-03-13
发射日期:
2020-09-03 UTC
国别 :
美国 (US)
星等 :
--
轨道信息
数据来源 国际轨道数据
星历时间: 2026-03-13T02:17:57+0800
1天前
查看轨道信息
半长轴: 6578.888km
偏心率: 0.000714
轨道倾角: 53.018°
近地点辐角 264.110°
升交点赤经 263.858°
平近点角 95.913°
近地点: 196.053km
远地点: 205.449km
周期: 88.509分钟
每日圈数: 16.269496
详细信息
固有亮度:
5
最大亮度:
2.5
卫星平台:
Starlink V1.0
覆盖范围:
全球
运营商:
太空探索技术公司
运营商所在国:
美国
制造商(研发单位):
太空探索技术公司
制造商所在国:
美国
使用方式:
暂无
卫星简介
星链(Starlink)计划是由太空探索技术公司(SpaceX)提出的一个巨型低轨卫星互联网星座项目,计划在2019年至2024年间在太空搭建由约1.2万颗卫星组成的“星链”网络,其中1584颗将部署在地球上空550千米处的近地轨道,并从2020年开始工作。该卫星仍在工作。